Year,Month,Day,Hour,Minute,Value (Times are PST for temperature in C)
2010,06,14,00,00,9.00
2010,06,14,00,01,9.00
2010,06,14,00,02,9.00
2010,06,14,00,03,8.90
2010,06,14,00,04,8.90
2010,06,14,00,05,8.90
2010,06,14,00,06,8.90
2010,06,14,00,07,8.80
2010,06,14,00,08,8.80
2010,06,14,00,09,8.80
2010,06,14,00,10,8.80
2010,06,14,00,11,8.80
2010,06,14,00,12,8.70
2010,06,14,00,13,8.70
2010,06,14,00,14,8.70
2010,06,14,00,15,8.70
2010,06,14,00,16,8.70
2010,06,14,00,17,8.70
2010,06,14,00,18,8.70
2010,06,14,00,19,8.70
2010,06,14,00,20,8.70
2010,06,14,00,21,8.70
2010,06,14,00,22,8.70
2010,06,14,00,23,8.70
2010,06,14,00,24,8.70
2010,06,14,00,25,8.70
2010,06,14,00,26,8.70
2010,06,14,00,27,8.70
2010,06,14,00,28,8.60
2010,06,14,00,29,8.60
2010,06,14,00,30,8.60
2010,06,14,00,31,8.60
2010,06,14,00,32,8.60
2010,06,14,00,33,8.50
2010,06,14,00,34,8.50
2010,06,14,00,35,8.50
2010,06,14,00,36,8.50
2010,06,14,00,37,8.50
2010,06,14,00,38,8.40
2010,06,14,00,39,8.40
2010,06,14,00,40,8.40
2010,06,14,00,41,8.40
2010,06,14,00,42,8.40
2010,06,14,00,43,8.40
2010,06,14,00,44,8.40
2010,06,14,00,45,8.30
2010,06,14,00,46,8.30
2010,06,14,00,47,8.30
2010,06,14,00,48,8.30
2010,06,14,00,49,8.30
2010,06,14,00,50,8.30
2010,06,14,00,51,8.30
2010,06,14,00,52,8.20
2010,06,14,00,53,8.20
2010,06,14,00,54,8.20
2010,06,14,00,55,8.20
2010,06,14,00,56,8.20
2010,06,14,00,57,8.20
2010,06,14,00,58,8.10
2010,06,14,00,59,8.20
2010,06,14,01,00,8.20
2010,06,14,01,01,8.20
2010,06,14,01,02,8.20
2010,06,14,01,03,8.20
2010,06,14,01,04,8.20
2010,06,14,01,05,8.20
2010,06,14,01,06,8.20
2010,06,14,01,07,8.20
2010,06,14,01,08,8.20
2010,06,14,01,09,8.20
2010,06,14,01,10,8.20
2010,06,14,01,11,8.20
2010,06,14,01,12,8.20
2010,06,14,01,13,8.20
2010,06,14,01,14,8.20
2010,06,14,01,15,8.20
2010,06,14,01,16,8.20
2010,06,14,01,17,8.20
2010,06,14,01,18,8.10
2010,06,14,01,19,8.10
2010,06,14,01,20,8.10
2010,06,14,01,21,8.10
2010,06,14,01,22,8.10
2010,06,14,01,23,8.10
2010,06,14,01,24,8.10
2010,06,14,01,25,8.00
2010,06,14,01,26,8.00
2010,06,14,01,27,8.00
2010,06,14,01,28,8.00
2010,06,14,01,29,7.90
2010,06,14,01,30,7.90
2010,06,14,01,31,7.90
2010,06,14,01,32,7.90
2010,06,14,01,33,7.90
2010,06,14,01,34,7.90
2010,06,14,01,35,7.90
2010,06,14,01,36,7.90
2010,06,14,01,37,7.90
2010,06,14,01,38,7.90
2010,06,14,01,39,7.90
2010,06,14,01,40,7.90
2010,06,14,01,41,7.90
2010,06,14,01,42,7.80
2010,06,14,01,43,7.80
2010,06,14,01,44,7.80
2010,06,14,01,45,7.80
2010,06,14,01,46,7.80
2010,06,14,01,47,7.80
2010,06,14,01,48,7.80
2010,06,14,01,49,7.80
2010,06,14,01,50,7.80
2010,06,14,01,51,7.80
2010,06,14,01,52,7.80
2010,06,14,01,53,7.80
2010,06,14,01,54,7.80
2010,06,14,01,55,7.80
2010,06,14,01,56,7.80
2010,06,14,01,57,7.80
2010,06,14,01,58,7.80
2010,06,14,01,59,7.70
2010,06,14,02,00,7.70
2010,06,14,02,01,7.70
2010,06,14,02,02,7.70
2010,06,14,02,03,7.70
2010,06,14,02,04,7.70
2010,06,14,02,05,7.70
2010,06,14,02,06,7.70
2010,06,14,02,07,7.70
2010,06,14,02,08,7.70
2010,06,14,02,09,7.70
2010,06,14,02,10,7.60
2010,06,14,02,11,7.60
2010,06,14,02,12,7.60
2010,06,14,02,13,7.60
2010,06,14,02,14,7.70
2010,06,14,02,15,7.70
2010,06,14,02,16,7.70
2010,06,14,02,17,7.70
2010,06,14,02,18,7.70
2010,06,14,02,19,7.70
2010,06,14,02,20,7.70
2010,06,14,02,21,7.80
2010,06,14,02,22,7.80
2010,06,14,02,23,7.80
2010,06,14,02,24,7.80
2010,06,14,02,25,7.80
2010,06,14,02,26,7.80
2010,06,14,02,27,7.70
2010,06,14,02,28,7.70
2010,06,14,02,29,7.70
2010,06,14,02,30,7.70
2010,06,14,02,31,7.70
2010,06,14,02,32,7.70
2010,06,14,02,33,7.60
2010,06,14,02,34,7.60
2010,06,14,02,35,7.60
2010,06,14,02,36,7.50
2010,06,14,02,37,7.50
2010,06,14,02,38,7.40
2010,06,14,02,39,7.40
2010,06,14,02,40,7.40
2010,06,14,02,41,7.30
2010,06,14,02,42,7.30
2010,06,14,02,43,7.30
2010,06,14,02,44,7.20
2010,06,14,02,45,7.20
2010,06,14,02,46,7.20
2010,06,14,02,47,7.10
2010,06,14,02,48,7.10
2010,06,14,02,49,7.00
2010,06,14,02,50,7.00
2010,06,14,02,51,6.90
2010,06,14,02,52,6.90
2010,06,14,02,53,6.80
2010,06,14,02,54,6.80
2010,06,14,02,55,6.80
2010,06,14,02,56,6.70
2010,06,14,02,57,6.70
2010,06,14,02,58,6.60
2010,06,14,02,59,6.60
2010,06,14,03,00,6.60
2010,06,14,03,01,6.60
2010,06,14,03,02,6.50
2010,06,14,03,03,6.50
2010,06,14,03,04,6.40
2010,06,14,03,05,6.40
2010,06,14,03,06,6.40
2010,06,14,03,07,6.40
2010,06,14,03,08,6.30
2010,06,14,03,09,6.30
2010,06,14,03,10,6.30
2010,06,14,03,11,6.20
2010,06,14,03,12,6.20
2010,06,14,03,13,6.20
2010,06,14,03,14,6.20
2010,06,14,03,15,6.20
2010,06,14,03,16,6.10
2010,06,14,03,17,6.10
2010,06,14,03,18,6.10
2010,06,14,03,19,6.10
2010,06,14,03,20,6.00
2010,06,14,03,21,6.00
2010,06,14,03,22,6.00
2010,06,14,03,23,5.90
2010,06,14,03,24,5.90
2010,06,14,03,25,5.90
2010,06,14,03,26,5.90
2010,06,14,03,27,5.80
2010,06,14,03,28,5.80
2010,06,14,03,29,5.80
2010,06,14,03,30,5.80
2010,06,14,03,31,5.80
2010,06,14,03,32,5.70
2010,06,14,03,33,5.70
2010,06,14,03,34,5.70
2010,06,14,03,35,5.70
2010,06,14,03,36,5.70
2010,06,14,03,37,5.60
2010,06,14,03,38,5.60
2010,06,14,03,39,5.60
2010,06,14,03,40,5.60
2010,06,14,03,41,5.60
2010,06,14,03,42,5.60
2010,06,14,03,43,5.50
2010,06,14,03,44,5.50
2010,06,14,03,45,5.50
2010,06,14,03,46,5.50
2010,06,14,03,47,5.40
2010,06,14,03,48,5.40
2010,06,14,03,49,5.40
2010,06,14,03,50,5.40
2010,06,14,03,51,5.30
2010,06,14,03,52,5.30
2010,06,14,03,53,5.30
2010,06,14,03,54,5.30
2010,06,14,03,55,5.30
2010,06,14,03,56,5.30
2010,06,14,03,57,5.20
2010,06,14,03,58,5.20
2010,06,14,03,59,5.20
2010,06,14,04,00,5.20
2010,06,14,04,01,5.20
2010,06,14,04,02,5.10
2010,06,14,04,03,5.10
2010,06,14,04,04,5.10
2010,06,14,04,05,5.10
2010,06,14,04,06,5.10
2010,06,14,04,07,5.10
2010,06,14,04,08,5.00
2010,06,14,04,09,5.00
2010,06,14,04,10,5.00
2010,06,14,04,11,4.90
2010,06,14,04,12,4.90
2010,06,14,04,13,4.90
2010,06,14,04,14,4.90
2010,06,14,04,15,4.90
2010,06,14,04,16,4.90
2010,06,14,04,17,4.80
2010,06,14,04,18,4.80
2010,06,14,04,19,4.80
2010,06,14,04,20,4.80
2010,06,14,04,21,4.80
2010,06,14,04,22,4.80
2010,06,14,04,23,4.80
2010,06,14,04,24,4.70
2010,06,14,04,25,4.70
2010,06,14,04,26,4.70
2010,06,14,04,27,4.70
2010,06,14,04,28,4.70
2010,06,14,04,29,4.70
2010,06,14,04,30,4.70
2010,06,14,04,31,4.70
2010,06,14,04,32,4.70
2010,06,14,04,33,4.60
2010,06,14,04,34,4.60
2010,06,14,04,35,4.60
2010,06,14,04,36,4.60
2010,06,14,04,37,4.60
2010,06,14,04,38,4.60
2010,06,14,04,39,4.60
2010,06,14,04,40,4.60
2010,06,14,04,41,4.50
2010,06,14,04,42,4.50
2010,06,14,04,43,4.50
2010,06,14,04,44,4.50
2010,06,14,04,45,4.40
2010,06,14,04,46,4.40
2010,06,14,04,47,4.40
2010,06,14,04,48,4.40
2010,06,14,04,49,4.40
2010,06,14,04,50,4.40
2010,06,14,04,51,4.40
2010,06,14,04,52,4.30
2010,06,14,04,53,4.30
2010,06,14,04,54,4.30
2010,06,14,04,55,4.30
2010,06,14,04,56,4.30
2010,06,14,04,57,4.30
2010,06,14,04,58,4.30
2010,06,14,04,59,4.30
2010,06,14,05,00,4.30
2010,06,14,05,01,4.30
2010,06,14,05,02,4.30
2010,06,14,05,03,4.20
2010,06,14,05,04,4.20
2010,06,14,05,05,4.20
2010,06,14,05,06,4.20
2010,06,14,05,07,4.20
2010,06,14,05,08,4.20
2010,06,14,05,09,4.20
2010,06,14,05,10,4.20
2010,06,14,05,11,4.20
2010,06,14,05,12,4.20
2010,06,14,05,13,4.20
2010,06,14,05,14,4.10
2010,06,14,05,15,4.10
2010,06,14,05,16,4.10
2010,06,14,05,17,4.10
2010,06,14,05,18,4.10
2010,06,14,05,19,4.10
2010,06,14,05,20,4.10
2010,06,14,05,21,4.10
2010,06,14,05,22,4.10
2010,06,14,05,23,4.10
2010,06,14,05,24,4.10
2010,06,14,05,25,4.10
2010,06,14,05,26,4.10
2010,06,14,05,27,4.10
2010,06,14,05,28,4.10
2010,06,14,05,29,4.10
2010,06,14,05,30,4.00
2010,06,14,05,31,4.00
2010,06,14,05,32,4.00
2010,06,14,05,33,4.00
2010,06,14,05,34,4.00
2010,06,14,05,35,4.00
2010,06,14,05,36,4.00
2010,06,14,05,37,4.00
2010,06,14,05,38,4.00
2010,06,14,05,39,4.00
2010,06,14,05,40,3.90
2010,06,14,05,41,4.00
2010,06,14,05,42,3.90
2010,06,14,05,43,3.90
2010,06,14,05,44,3.90
2010,06,14,05,45,3.90
2010,06,14,05,46,3.90
2010,06,14,05,47,4.00
2010,06,14,05,48,4.00
2010,06,14,05,49,4.00
2010,06,14,05,50,4.00
2010,06,14,05,51,4.00
2010,06,14,05,52,4.00
2010,06,14,05,53,4.00
2010,06,14,05,54,4.00
2010,06,14,05,55,4.00
2010,06,14,05,56,4.00
2010,06,14,05,57,4.00
2010,06,14,05,58,4.00
2010,06,14,05,59,4.10
2010,06,14,06,00,4.00
2010,06,14,06,01,4.10
2010,06,14,06,02,4.10
2010,06,14,06,03,4.10
2010,06,14,06,04,4.10
2010,06,14,06,05,4.10
2010,06,14,06,06,4.10
2010,06,14,06,07,4.10
2010,06,14,06,08,4.10
2010,06,14,06,09,4.10
2010,06,14,06,10,4.10
2010,06,14,06,11,4.10
2010,06,14,06,12,4.10
2010,06,14,06,13,4.10
2010,06,14,06,14,4.10
2010,06,14,06,15,4.10
2010,06,14,06,16,4.20
2010,06,14,06,17,4.20
2010,06,14,06,18,4.20
2010,06,14,06,19,4.20
2010,06,14,06,20,4.20
2010,06,14,06,21,4.20
2010,06,14,06,22,4.20
2010,06,14,06,23,4.20
2010,06,14,06,24,4.20
2010,06,14,06,25,4.30
2010,06,14,06,26,4.30
2010,06,14,06,27,4.30
2010,06,14,06,28,4.30
2010,06,14,06,29,4.30
2010,06,14,06,30,4.30
2010,06,14,06,31,4.30
2010,06,14,06,32,4.30
2010,06,14,06,33,4.40
2010,06,14,06,34,4.40
2010,06,14,06,35,4.40
2010,06,14,06,36,4.40
2010,06,14,06,37,4.40
2010,06,14,06,38,4.40
2010,06,14,06,39,4.40
2010,06,14,06,40,4.50
2010,06,14,06,41,4.50
2010,06,14,06,42,4.50
2010,06,14,06,43,4.60
2010,06,14,06,44,4.60
2010,06,14,06,45,4.60
2010,06,14,06,46,4.60
2010,06,14,06,47,4.60
2010,06,14,06,48,4.60
2010,06,14,06,49,4.60
2010,06,14,06,50,4.70
2010,06,14,06,51,4.70
2010,06,14,06,52,4.70
2010,06,14,06,53,4.70
2010,06,14,06,54,4.70
2010,06,14,06,55,4.80
2010,06,14,06,56,4.80
2010,06,14,06,57,4.80
2010,06,14,06,58,4.90
2010,06,14,06,59,4.90
2010,06,14,07,00,5.00
2010,06,14,07,01,5.00
2010,06,14,07,02,5.10
2010,06,14,07,03,5.10
2010,06,14,07,04,5.10
2010,06,14,07,05,5.20
2010,06,14,07,06,5.20
2010,06,14,07,07,5.20
2010,06,14,07,08,5.30
2010,06,14,07,09,5.30
2010,06,14,07,10,5.30
2010,06,14,07,11,5.40
2010,06,14,07,12,5.40
2010,06,14,07,13,5.40
2010,06,14,07,14,5.50
2010,06,14,07,15,5.50
2010,06,14,07,16,5.60
2010,06,14,07,17,5.60
2010,06,14,07,18,5.70
2010,06,14,07,19,5.70
2010,06,14,07,20,5.80
2010,06,14,07,21,5.90
2010,06,14,07,22,6.00
2010,06,14,07,23,6.10
2010,06,14,07,24,6.30
2010,06,14,07,25,6.40
2010,06,14,07,26,6.60
2010,06,14,07,27,6.70
2010,06,14,07,28,6.90
2010,06,14,07,29,7.10
2010,06,14,07,30,7.30
2010,06,14,07,31,7.40
2010,06,14,07,32,7.60
2010,06,14,07,33,7.80
2010,06,14,07,34,7.90
2010,06,14,07,35,8.10
2010,06,14,07,36,8.30
2010,06,14,07,37,8.40
2010,06,14,07,38,8.60
2010,06,14,07,39,8.80
2010,06,14,07,40,8.90
2010,06,14,07,41,9.10
2010,06,14,07,42,9.20
2010,06,14,07,43,9.40
2010,06,14,07,44,9.50
2010,06,14,07,45,9.60
2010,06,14,07,46,9.80
2010,06,14,07,47,9.90
2010,06,14,07,48,10.00
2010,06,14,07,49,10.10
2010,06,14,07,50,10.20
2010,06,14,07,51,10.20
2010,06,14,07,52,10.30
2010,06,14,07,53,10.30
2010,06,14,07,54,10.40
2010,06,14,07,55,10.40
2010,06,14,07,56,10.50
2010,06,14,07,57,10.50
2010,06,14,07,58,10.60
2010,06,14,07,59,10.70
2010,06,14,08,00,10.80
2010,06,14,08,01,10.80
2010,06,14,08,02,10.90
2010,06,14,08,03,11.00
2010,06,14,08,04,11.10
2010,06,14,08,05,11.20
2010,06,14,08,06,11.30
2010,06,14,08,07,11.40
2010,06,14,08,08,11.50
2010,06,14,08,09,11.60
2010,06,14,08,10,11.70
2010,06,14,08,11,11.70
2010,06,14,08,12,11.80
2010,06,14,08,13,11.80
2010,06,14,08,14,11.80
2010,06,14,08,15,11.80
2010,06,14,08,16,11.90
2010,06,14,08,17,11.90
2010,06,14,08,18,11.90
2010,06,14,08,19,12.00
2010,06,14,08,20,12.10
2010,06,14,08,21,12.10
2010,06,14,08,22,12.20
2010,06,14,08,23,12.20
2010,06,14,08,24,12.30
2010,06,14,08,25,12.30
2010,06,14,08,26,12.40
2010,06,14,08,27,12.40
2010,06,14,08,28,12.50
2010,06,14,08,29,12.50
2010,06,14,08,30,12.60
2010,06,14,08,31,12.60
2010,06,14,08,32,12.70
2010,06,14,08,33,12.70
2010,06,14,08,34,12.80
2010,06,14,08,35,12.90
2010,06,14,08,36,13.00
2010,06,14,08,37,13.10
2010,06,14,08,38,13.20
2010,06,14,08,39,13.20
2010,06,14,08,40,13.30
2010,06,14,08,41,13.30
2010,06,14,08,42,13.30
2010,06,14,08,43,13.40
2010,06,14,08,44,13.40
2010,06,14,08,45,13.40
2010,06,14,08,46,13.40
2010,06,14,08,47,13.40
2010,06,14,08,48,13.50
2010,06,14,08,49,13.50
2010,06,14,08,50,13.60
2010,06,14,08,51,13.50
2010,06,14,08,52,13.40
2010,06,14,08,53,13.40
2010,06,14,08,54,13.40
2010,06,14,08,55,13.30
2010,06,14,08,56,13.40
2010,06,14,08,57,13.40
2010,06,14,08,58,13.40
2010,06,14,08,59,13.40
2010,06,14,09,00,13.40
2010,06,14,09,01,13.40
2010,06,14,09,02,13.50
2010,06,14,09,03,13.50
2010,06,14,09,04,13.50
2010,06,14,09,05,13.60
2010,06,14,09,06,13.60
2010,06,14,09,07,13.60
2010,06,14,09,08,13.60
2010,06,14,09,09,13.50
2010,06,14,09,10,13.50
2010,06,14,09,11,13.40
2010,06,14,09,12,13.40
2010,06,14,09,13,13.40
2010,06,14,09,14,13.50
2010,06,14,09,15,13.50
2010,06,14,09,16,13.60
2010,06,14,09,17,13.60
2010,06,14,09,18,13.60
2010,06,14,09,19,13.60
2010,06,14,09,20,13.60
2010,06,14,09,21,13.60
2010,06,14,09,22,13.60
2010,06,14,09,23,13.60
2010,06,14,09,24,13.60
2010,06,14,09,25,13.60
2010,06,14,09,26,13.60
2010,06,14,09,27,13.60
2010,06,14,09,28,13.60
2010,06,14,09,29,13.70
2010,06,14,09,30,13.70
2010,06,14,09,31,13.80
2010,06,14,09,32,13.80
2010,06,14,09,33,13.80
2010,06,14,09,34,13.80
2010,06,14,09,35,13.80
2010,06,14,09,36,13.80
2010,06,14,09,37,13.80
2010,06,14,09,38,13.80
2010,06,14,09,39,13.80
2010,06,14,09,40,13.80
2010,06,14,09,41,13.80
2010,06,14,09,42,13.90
2010,06,14,09,43,13.90
2010,06,14,09,44,14.00
2010,06,14,09,45,14.00
2010,06,14,09,46,14.00
2010,06,14,09,47,14.00
2010,06,14,09,48,14.10
2010,06,14,09,49,14.10
2010,06,14,09,50,14.10
2010,06,14,09,51,14.20
2010,06,14,09,52,14.30
2010,06,14,09,53,14.40
2010,06,14,09,54,14.40
2010,06,14,09,55,14.40
2010,06,14,09,56,14.40
2010,06,14,09,57,14.50
2010,06,14,09,58,14.50
2010,06,14,09,59,14.60
2010,06,14,10,00,14.60
2010,06,14,10,01,14.60
2010,06,14,10,02,14.70
2010,06,14,10,03,14.70
2010,06,14,10,04,14.70
2010,06,14,10,05,14.70
2010,06,14,10,06,14.80
2010,06,14,10,07,14.80
2010,06,14,10,08,15.00
2010,06,14,10,09,15.00
2010,06,14,10,10,15.00
2010,06,14,10,11,15.00
2010,06,14,10,12,15.00
2010,06,14,10,13,15.10
2010,06,14,10,14,15.20
2010,06,14,10,15,15.20
2010,06,14,10,16,15.20
2010,06,14,10,17,15.30
2010,06,14,10,18,15.30
2010,06,14,10,19,15.40
2010,06,14,10,20,15.40
2010,06,14,10,21,15.40
2010,06,14,10,22,15.40
2010,06,14,10,23,15.40
2010,06,14,10,24,15.40
2010,06,14,10,25,15.40
2010,06,14,10,26,15.40
2010,06,14,10,27,15.50
2010,06,14,10,28,15.50
2010,06,14,10,29,15.60
2010,06,14,10,30,15.70
2010,06,14,10,31,15.80
2010,06,14,10,32,15.90
2010,06,14,10,33,16.00
2010,06,14,10,34,16.00
2010,06,14,10,35,16.10
2010,06,14,10,36,16.00
2010,06,14,10,37,15.90
2010,06,14,10,38,16.00
2010,06,14,10,39,16.00
2010,06,14,10,40,15.90
2010,06,14,10,41,15.70
2010,06,14,10,42,15.50
2010,06,14,10,43,15.40
2010,06,14,10,44,15.30
2010,06,14,10,45,15.30
2010,06,14,10,46,15.30
2010,06,14,10,47,15.20
2010,06,14,10,48,15.20
2010,06,14,10,49,15.00
2010,06,14,10,50,15.00
2010,06,14,10,51,15.00
2010,06,14,10,52,14.80
2010,06,14,10,53,14.70
2010,06,14,10,54,14.60
2010,06,14,10,55,14.60
2010,06,14,10,56,14.50
2010,06,14,10,57,14.50
2010,06,14,10,58,14.60
2010,06,14,10,59,14.60
2010,06,14,11,00,14.60
2010,06,14,11,01,14.60
2010,06,14,11,02,14.60
2010,06,14,11,03,14.60
2010,06,14,11,04,14.60
2010,06,14,11,05,14.70
2010,06,14,11,06,14.70
2010,06,14,11,07,14.70
2010,06,14,11,08,14.80
2010,06,14,11,09,14.80
2010,06,14,11,10,14.80
2010,06,14,11,11,14.90
2010,06,14,11,12,14.90
2010,06,14,11,13,15.00
2010,06,14,11,14,15.00
2010,06,14,11,15,15.00
2010,06,14,11,16,15.00
2010,06,14,11,17,15.10
2010,06,14,11,18,15.20
2010,06,14,11,19,15.30
2010,06,14,11,20,15.50
2010,06,14,11,21,15.50
2010,06,14,11,22,15.60
2010,06,14,11,23,15.60
2010,06,14,11,24,15.70
2010,06,14,11,25,15.80
2010,06,14,11,26,15.90
2010,06,14,11,27,16.00
2010,06,14,11,28,16.20
2010,06,14,11,29,16.30
2010,06,14,11,30,16.30
2010,06,14,11,31,16.30
2010,06,14,11,32,16.30
2010,06,14,11,33,16.30
2010,06,14,11,34,16.40
2010,06,14,11,35,16.40
2010,06,14,11,36,16.50
2010,06,14,11,37,16.50
2010,06,14,11,38,16.40
2010,06,14,11,39,16.40
2010,06,14,11,40,16.30
2010,06,14,11,41,16.30
2010,06,14,11,42,16.10
2010,06,14,11,43,16.00
2010,06,14,11,44,15.70
2010,06,14,11,45,15.60
2010,06,14,11,46,15.40
2010,06,14,11,47,15.30
2010,06,14,11,48,15.20
2010,06,14,11,49,15.20
2010,06,14,11,50,15.10
2010,06,14,11,51,15.00
2010,06,14,11,52,15.00
2010,06,14,11,53,15.10
2010,06,14,11,54,15.20
2010,06,14,11,55,15.30
2010,06,14,11,56,15.30
2010,06,14,11,57,15.30
2010,06,14,11,58,15.20
2010,06,14,11,59,15.20
2010,06,14,12,00,15.20
2010,06,14,12,01,15.20
2010,06,14,12,02,15.30
2010,06,14,12,03,15.40
2010,06,14,12,04,15.60
2010,06,14,12,05,15.70
2010,06,14,12,06,15.80
2010,06,14,12,07,16.00
2010,06,14,12,08,16.10
2010,06,14,12,09,16.30
2010,06,14,12,10,16.40
2010,06,14,12,11,16.40
2010,06,14,12,12,16.40
2010,06,14,12,13,16.40
2010,06,14,12,14,16.40
2010,06,14,12,15,16.50
2010,06,14,12,16,16.60
2010,06,14,12,17,16.70
2010,06,14,12,18,16.90
2010,06,14,12,19,17.00
2010,06,14,12,20,17.10
2010,06,14,12,21,17.20
2010,06,14,12,22,17.30
2010,06,14,12,23,17.20
2010,06,14,12,24,17.20
2010,06,14,12,25,17.20
2010,06,14,12,26,17.20
2010,06,14,12,27,17.30
2010,06,14,12,28,17.30
2010,06,14,12,29,17.30
2010,06,14,12,30,17.40
2010,06,14,12,31,17.40
2010,06,14,12,32,17.40
2010,06,14,12,33,17.40
2010,06,14,12,34,17.40
2010,06,14,12,35,17.40
2010,06,14,12,36,17.30
2010,06,14,12,37,17.40
2010,06,14,12,38,17.40
2010,06,14,12,39,17.40
2010,06,14,12,40,17.40
2010,06,14,12,41,17.40
2010,06,14,12,42,17.50
2010,06,14,12,43,17.60
2010,06,14,12,44,17.60
2010,06,14,12,45,17.50
2010,06,14,12,46,17.40
2010,06,14,12,47,17.20
2010,06,14,12,48,17.00
2010,06,14,12,49,16.80
2010,06,14,12,50,16.70
2010,06,14,12,51,16.60
2010,06,14,12,52,16.50
2010,06,14,12,53,16.50
2010,06,14,12,54,16.50
2010,06,14,12,55,16.40
2010,06,14,12,56,16.40
2010,06,14,12,57,16.40
2010,06,14,12,58,16.40
2010,06,14,12,59,16.40
2010,06,14,13,00,16.30
2010,06,14,13,01,16.20
2010,06,14,13,02,16.10
2010,06,14,13,03,16.10
2010,06,14,13,04,16.10
2010,06,14,13,05,16.30
2010,06,14,13,06,16.40
2010,06,14,13,07,16.60
2010,06,14,13,08,16.70
2010,06,14,13,09,16.90
2010,06,14,13,10,17.00
2010,06,14,13,11,17.00
2010,06,14,13,12,17.10
2010,06,14,13,13,17.00
2010,06,14,13,14,17.00
2010,06,14,13,15,17.10
2010,06,14,13,16,17.10
2010,06,14,13,17,17.10
2010,06,14,13,18,17.00
2010,06,14,13,19,17.00
2010,06,14,13,20,17.10
2010,06,14,13,21,17.10
2010,06,14,13,22,17.10
2010,06,14,13,23,17.30
2010,06,14,13,24,17.40
2010,06,14,13,25,17.50
2010,06,14,13,26,17.50
2010,06,14,13,27,17.60
2010,06,14,13,28,17.60
2010,06,14,13,29,17.70
2010,06,14,13,30,17.70
2010,06,14,13,31,17.60
2010,06,14,13,32,17.50
2010,06,14,13,33,17.50
2010,06,14,13,34,17.50
2010,06,14,13,35,17.50
2010,06,14,13,36,17.40
2010,06,14,13,37,17.30
2010,06,14,13,38,17.20
2010,06,14,13,39,17.10
2010,06,14,13,40,17.00
2010,06,14,13,41,16.90
2010,06,14,13,42,16.90
2010,06,14,13,43,17.00
2010,06,14,13,44,17.20
2010,06,14,13,45,17.30
2010,06,14,13,46,17.30
2010,06,14,13,47,17.50
2010,06,14,13,48,17.60
2010,06,14,13,49,17.70
2010,06,14,13,50,17.80
2010,06,14,13,51,17.90
2010,06,14,13,52,17.90
2010,06,14,13,53,18.00
2010,06,14,13,54,18.00
2010,06,14,13,55,18.00
2010,06,14,13,56,18.00
2010,06,14,13,57,17.90
2010,06,14,13,58,17.80
2010,06,14,13,59,17.70
2010,06,14,14,00,17.70
2010,06,14,14,01,17.70
2010,06,14,14,02,17.70
2010,06,14,14,03,17.70
2010,06,14,14,04,17.60
2010,06,14,14,05,17.60
2010,06,14,14,06,17.50
2010,06,14,14,07,17.50
2010,06,14,14,08,17.40
2010,06,14,14,09,17.50
2010,06,14,14,10,17.60
2010,06,14,14,11,17.70
2010,06,14,14,12,17.90
2010,06,14,14,13,17.90
2010,06,14,14,14,18.00
2010,06,14,14,15,18.10
2010,06,14,14,16,18.10
2010,06,14,14,17,18.10
2010,06,14,14,18,18.10
2010,06,14,14,19,18.00
2010,06,14,14,20,17.90
2010,06,14,14,21,18.00
2010,06,14,14,22,17.90
2010,06,14,14,23,17.70
2010,06,14,14,24,17.70
2010,06,14,14,25,17.60
2010,06,14,14,26,17.70
2010,06,14,14,27,17.80
2010,06,14,14,28,17.80
2010,06,14,14,29,17.80
2010,06,14,14,30,17.90
2010,06,14,14,31,18.00
2010,06,14,14,32,18.10
2010,06,14,14,33,18.20
2010,06,14,14,34,18.30
2010,06,14,14,35,18.20
2010,06,14,14,36,18.10
2010,06,14,14,37,18.10
2010,06,14,14,38,18.10
2010,06,14,14,39,18.00
2010,06,14,14,40,17.80
2010,06,14,14,41,17.70
2010,06,14,14,42,17.70
2010,06,14,14,43,17.70
2010,06,14,14,44,17.70
2010,06,14,14,45,17.80
2010,06,14,14,46,17.80
2010,06,14,14,47,17.80
2010,06,14,14,48,17.80
2010,06,14,14,49,17.80
2010,06,14,14,50,17.90
2010,06,14,14,51,17.90
2010,06,14,14,52,17.90
2010,06,14,14,53,18.00
2010,06,14,14,54,18.00
2010,06,14,14,55,18.10
2010,06,14,14,56,18.10
2010,06,14,14,57,18.10
2010,06,14,14,58,18.00
2010,06,14,14,59,18.00
2010,06,14,15,00,18.00
2010,06,14,15,01,18.00
2010,06,14,15,02,18.10
2010,06,14,15,03,18.10
2010,06,14,15,04,18.10
2010,06,14,15,05,18.00
2010,06,14,15,06,17.90
2010,06,14,15,07,17.90
2010,06,14,15,08,17.90
2010,06,14,15,09,17.80
2010,06,14,15,10,17.80
2010,06,14,15,11,17.80
2010,06,14,15,12,17.70
2010,06,14,15,13,17.70
2010,06,14,15,14,17.60
2010,06,14,15,15,17.50
2010,06,14,15,16,17.50
2010,06,14,15,17,17.60
2010,06,14,15,18,17.60
2010,06,14,15,19,17.70
2010,06,14,15,20,17.70
2010,06,14,15,21,17.80
2010,06,14,15,22,17.80
2010,06,14,15,23,17.80
2010,06,14,15,24,17.80
2010,06,14,15,25,17.70
2010,06,14,15,26,17.70
2010,06,14,15,27,17.50
2010,06,14,15,28,17.40
2010,06,14,15,29,17.40
2010,06,14,15,30,17.40
2010,06,14,15,31,17.40
2010,06,14,15,32,17.40
2010,06,14,15,33,17.40
2010,06,14,15,34,17.40
2010,06,14,15,35,17.40
2010,06,14,15,36,17.30
2010,06,14,15,37,17.30
2010,06,14,15,38,17.40
2010,06,14,15,39,17.40
2010,06,14,15,40,17.40
2010,06,14,15,41,17.30
2010,06,14,15,42,17.20
2010,06,14,15,43,17.20
2010,06,14,15,44,17.10
2010,06,14,15,45,17.10
2010,06,14,15,46,17.10
2010,06,14,15,47,17.10
2010,06,14,15,48,17.00
2010,06,14,15,49,17.00
2010,06,14,15,50,16.90
2010,06,14,15,51,16.90
2010,06,14,15,52,16.80
2010,06,14,15,53,16.80
2010,06,14,15,54,16.70
2010,06,14,15,55,16.70
2010,06,14,15,56,16.70
2010,06,14,15,57,16.70
2010,06,14,15,58,16.60
2010,06,14,15,59,16.60
2010,06,14,16,00,16.50
2010,06,14,16,01,16.40
2010,06,14,16,02,16.40
2010,06,14,16,03,16.40
2010,06,14,16,04,16.40
2010,06,14,16,05,16.40
2010,06,14,16,06,16.50
2010,06,14,16,07,16.50
2010,06,14,16,08,16.50
2010,06,14,16,09,16.50
2010,06,14,16,10,16.50
2010,06,14,16,11,16.50
2010,06,14,16,12,16.50
2010,06,14,16,13,16.50
2010,06,14,16,14,16.50
2010,06,14,16,15,16.50
2010,06,14,16,16,16.40
2010,06,14,16,17,16.30
2010,06,14,16,18,16.20
2010,06,14,16,19,16.20
2010,06,14,16,20,16.10
2010,06,14,16,21,16.10
2010,06,14,16,22,16.00
2010,06,14,16,23,15.90
2010,06,14,16,24,15.90
2010,06,14,16,25,15.90
2010,06,14,16,26,15.90
2010,06,14,16,27,15.90
2010,06,14,16,28,15.90
2010,06,14,16,29,15.90
2010,06,14,16,30,15.90
2010,06,14,16,31,15.90
2010,06,14,16,32,15.80
2010,06,14,16,33,15.80
2010,06,14,16,34,15.80
2010,06,14,16,35,15.80
2010,06,14,16,36,15.80
2010,06,14,16,37,15.70
2010,06,14,16,38,15.60
2010,06,14,16,39,15.60
2010,06,14,16,40,15.60
2010,06,14,16,41,15.60
2010,06,14,16,42,15.60
2010,06,14,16,43,15.70
2010,06,14,16,44,15.70
2010,06,14,16,45,15.70
2010,06,14,16,46,15.70
2010,06,14,16,47,15.70
2010,06,14,16,48,15.70
2010,06,14,16,49,15.70
2010,06,14,16,50,15.70
2010,06,14,16,51,15.70
2010,06,14,16,52,15.70
2010,06,14,16,53,15.60
2010,06,14,16,54,15.50
2010,06,14,16,55,15.30
2010,06,14,16,56,15.20
2010,06,14,16,57,15.10
2010,06,14,16,58,15.10
2010,06,14,16,59,15.10
2010,06,14,17,00,15.10
2010,06,14,17,01,15.10
2010,06,14,17,02,15.10
2010,06,14,17,03,15.00
2010,06,14,17,04,15.00
2010,06,14,17,05,15.00
2010,06,14,17,06,14.90
2010,06,14,17,07,14.90
2010,06,14,17,08,14.90
2010,06,14,17,09,15.00
2010,06,14,17,10,15.00
2010,06,14,17,11,15.00
2010,06,14,17,12,15.00
2010,06,14,17,13,15.00
2010,06,14,17,14,15.00
2010,06,14,17,15,15.00
2010,06,14,17,16,15.00
2010,06,14,17,17,15.00
2010,06,14,17,18,15.00
2010,06,14,17,19,14.90
2010,06,14,17,20,14.80
2010,06,14,17,21,14.70
2010,06,14,17,22,14.70
2010,06,14,17,23,14.60
2010,06,14,17,24,14.60
2010,06,14,17,25,14.60
2010,06,14,17,26,14.60
2010,06,14,17,27,14.60
2010,06,14,17,28,14.60
2010,06,14,17,29,14.60
2010,06,14,17,30,14.60
2010,06,14,17,31,14.60
2010,06,14,17,32,14.50
2010,06,14,17,33,14.50
2010,06,14,17,34,14.50
2010,06,14,17,35,14.50
2010,06,14,17,36,14.40
2010,06,14,17,37,14.30
2010,06,14,17,38,14.30
2010,06,14,17,39,14.30